Tracking 19854 objects as of 23-Sep-2019
HD Live streaming from Space Station
objects crossing your sky now

FENGYUN 1C DEB

Track FENGYUN 1C DEB now!
10-day predictions


NORAD ID: 35135
Int'l Code: 1999-025DLP
Perigee: 777.1 km
Apogee: 902.0 km
Inclination: 98.8 °
Period: 101.6 minutes
Semi major axis: 7210 km
RCS: 0.0108 m2 (small)
Launch date: May 10, 1999
Source: People's Republic of China (PRC)
Launch site: Taiyaun Space Center, China (TSC)

Note: This is SATELLITE DEBRIS
aabbcc
Your satellite tracking list
Your tracking list is empty




NASA's NSSDC Master Catalog

Two Line Element Set (TLE):
1 35135U 99025DLP 19265.92142455  .00000123  00000-0  78547-4 0  9998
2 35135  98.7510 298.3837 0086592 359.9216 120.4070 14.17908721556835
Source of the keplerian elements: AFSPC